{"data":{"norad_id":67152,"intl_designator":"2025-301V","name":"KUIPER-00247","alt_names":[],"object_type":"PAYLOAD","status":"ACTIVE","operator":null,"country":"US","launch_date":"2025-12-16","launch_site_code":"AFETR","launch_vehicle":null,"mission":null,"orbit_class":"UNKNOWN","rcs_meters":null,"size_class":null,"mass_kg":null,"dimensions":null,"purposes":[],"wikipedia_slug":null,"has_3d_model":false,"image_url":null,"decayed_at":null,"tle_current":{"epoch":"2026-09-20T05:17:35.752416Z","epoch_age_seconds":130298,"freshness":"FRESH","line1":"1 67152U 25301V   26263.22055269  .00000632  00000+0  11190-3 0  9997","line2":"2 67152  51.8967 277.8415 0000455  65.9796 294.1214 14.79931740 42643","mean_motion":14.7993174,"eccentricity":4.55e-5,"inclination_deg":51.8967,"raan_deg":277.8415,"arg_perigee_deg":65.9796,"mean_anomaly_deg":294.1214,"bstar":0.0001119,"rev_number":4264,"period_min":97.301785013409,"perigee_km":629.22075739998,"apogee_km":629.85845597119,"semimajor_km":7007.6766066856,"source":"CELESTRAK","updated_at":"2026-09-21T09:00:16.459775Z"}}}